Regional Weather Roundup
Issued by NWS

Home | Current Version | Previous Version | Graphics & Text | Print | Product List | Glossary On
Versions: 1 2 3 4 5 6 7 8 9 10 11 12 13 14 15 16 17 18 19 20 21 22 23 24 25 26 27 28 29 30 31 32 33 34 35 36 37 38 39 40 41 42 43 44 45 46 47 48 49 50
000
ASUS45 KBOI 041210
RWRID

IDAHO REGIONAL WEATHER ROUNDUP
NATIONAL WEATHER SERVICE BOISE ID
600 AM MDT SAT JUL 04 2015

NOTE: "FAIR" INDICATES FEW OR NO CLOUDS BELOW 12000 FEET
WITH NO SIGNIFICANT WEATHER AND/OR OBSTRUCTIONS TO VISIBILITY

IDZ012-014-041300-
SOUTHWEST IDAHO


CITY           SKY/WX    TMP DP  RH WIND       PRES   REMARKS
BOISE          PTCLDY    72  39  30 SE7       29.84R
CALDWELL       PTCLDY    70  45  40 W7        29.83F
MOUNTAIN HOME  PTCLDY    74  38  27 NW9       29.84R
$$

IDZ016-017-041300-
SOUTHCENTRAL IDAHO


CITY           SKY/WX    TMP DP  RH WIND       PRES   REMARKS
BURLEY         MOCLDY    64  50  60 W6        29.92R
JEROME         PTCLDY    71  49  45 SE5       29.93R
TWIN FALLS     MOCLDY    77  46  33 S12       29.90R
$$

IDZ019>023-041300-
SOUTHEAST IDAHO


CITY           SKY/WX    TMP DP  RH WIND       PRES   REMARKS
IDAHO FALLS    CLEAR     54  52  93 CALM      29.97R
POCATELLO      CLEAR     65  46  50 SW6       29.95R
REXBURG        CLEAR     56  51  84 NE6       29.98R
$$

IDZ006-010-011-018-031-032-041300-
CENTRAL IDAHO MOUNTAINS


CITY           SKY/WX    TMP DP  RH WIND       PRES   REMARKS
MCCALL         PTCLDY    54  41  61 NE3       30.01R
HAILEY         PTCLDY    59  36  41 NW12      30.04F
STANLEY          N/A     41  31  67 CALM      30.16R
SALMON         PTCLDY    54  45  71 CALM      29.98R
CHALLIS        CLEAR     58  38  47 CALM      30.04R
$$

IDZ002-004-006-007-026-041300-
NORTHERN IDAHO


CITY           SKY/WX    TMP DP  RH WIND       PRES   REMARKS
LEWISTON       CLEAR     71  46  40 CALM      29.79R
LOWELL           N/A     60  53  77 N3        29.88R
COEUR D`ALENE  CLEAR     66  54  63 SE8       29.81R
MULLAN PASS    CLEAR     66  34  30 VRB5      30.06S
$$


USA.gov is the U.S. government's official web portal to all federal, state and local government web resources and services.